Weather History for Mount Shasta, CA

Change the Weather History Date:

Sunday, June 2, 2013

  Actual Average Record
Temperature  
Mean Temperature 67 °F 58 °F  
Max Temperature 80 °F 73 °F 93 °F (1970)
Min Temperature 54 °F 43 °F 20 °F (1929)
Degree Days  
Heating Degree Days 0 7  
Month to date heating degree days 0 14  
Since 1 June heating degree days 0 14  
Since 1 July heating degree days 5009 5566  
Cooling Degree Days 2 1  
Month to date cooling degree days 5 2  
Year to date cooling degree days 14 10  
Since 1 June cooling degree days 5 2  
Growing Degree Days 17 (Base 50)    
Moisture  
Dew Point 41 °F    
Average Humidity 42    
Maximum Humidity 61    
Minimum Humidity 21    
Precipitation  
Precipitation 0.00 in 0.06 in 0.65 in (1942)
Month to date precipitation 0.00 0.12  
Year to date precipitation 6.41 25.52  
Sea Level Pressure  
Sea Level Pressure 29.90 in    
Wind  
Wind Speed 7 mph (NNW)    
Max Wind Speed 13 mph    
Max Gust Speed 24 mph    
Visibility 10 miles    
Events      
T = Trace of Precipitation, MM = Missing Value Source: NWS Daily Summary

Daily Weather History Graph

Daily Weather History Graph

Search for Another Location

Airport:

Trip Planner

Search our weather history database for the weather conditions in past years. The results will help you decide how hot, cold, wet, or windy it might be!

Date:

Astronomy

Jun. 02, 2013 Rise Set
Actual Time 5:37 AM PDT 8:37 PM PDT
Civil Twilight 5:04 AM PDT 9:10 PM PDT
Nautical Twilight 4:22 AM PDT 9:52 PM PDT
Astronomical Twilight 3:33 AM PDT 10:42 PM PDT
Moon 2:10 AM PDT (6/2) 3:10 PM PDT (6/2)
Length of Visible Light 16h 05m
Length of Day
14h 59m
Waning Crescent, 30% of the Moon is Illuminated
Jun 2
Waning Crescent
Jun 8
New
Jun 16
First Quarter
Jun 23
Full
Jun 29
Last Quarter

Hourly Weather History & Observations

Time (PDT) Temp. Dew Point Humidity Pressure Visibility Wind Dir Wind Speed Gust Speed Precip Events Conditions
12:56 AM 61.0 °F 37.0 °F 41% 29.96 in 10.0 mi Variable 5.8 mph - N/A   Clear
1:56 AM 59.0 °F 37.9 °F 46% 29.94 in 10.0 mi Variable 6.9 mph - N/A   Clear
2:56 AM 57.9 °F 39.0 °F 49% 29.94 in 10.0 mi Variable 5.8 mph - N/A   Clear
3:56 AM 57.0 °F 39.9 °F 53% 29.92 in 10.0 mi Variable 5.8 mph - N/A   Clear
4:56 AM 55.9 °F 39.9 °F 55% 29.92 in 10.0 mi Variable 5.8 mph - N/A   Clear
5:56 AM 55.0 °F 41.0 °F 59% 29.92 in 10.0 mi Variable 3.5 mph - N/A   Clear
6:56 AM 55.9 °F 42.1 °F 60% 29.93 in 10.0 mi Variable 4.6 mph - N/A   Clear
7:56 AM 60.1 °F 44.1 °F 55% 29.93 in 10.0 mi NNW 9.2 mph - N/A   Clear
8:56 AM 63.0 °F 45.0 °F 52% 29.93 in 10.0 mi North 8.1 mph - N/A   Clear
9:56 AM 64.9 °F 45.0 °F 48% 29.92 in 10.0 mi Variable 6.9 mph 16.1 mph N/A   Clear
10:56 AM 70.0 °F 45.0 °F 41% 29.91 in 10.0 mi NNW 8.1 mph - N/A   Clear
11:56 AM 71.1 °F 42.1 °F 35% 29.89 in 10.0 mi NNW 9.2 mph 23.0 mph N/A   Clear
12:56 PM 73.9 °F 39.9 °F 29% 29.88 in 10.0 mi NW 10.4 mph 23.0 mph N/A   Clear
1:56 PM 75.9 °F 42.1 °F 30% 29.87 in 10.0 mi Variable 5.8 mph 18.4 mph N/A   Clear
2:56 PM 78.1 °F 41.0 °F 27% 29.86 in 10.0 mi Variable 6.9 mph 21.9 mph N/A   Clear
3:56 PM 79.0 °F 37.9 °F 23% 29.85 in 10.0 mi WNW 9.2 mph 16.1 mph N/A   Clear
4:56 PM 77.0 °F 36.0 °F 23% 29.84 in 10.0 mi Variable 6.9 mph - N/A   Clear
5:56 PM 75.9 °F 33.1 °F 21% 29.84 in 10.0 mi Variable 6.9 mph 16.1 mph N/A   Clear
6:56 PM 73.9 °F 35.1 °F 24% 29.86 in 10.0 mi WNW 8.1 mph - N/A   Clear
7:56 PM 72.0 °F 39.0 °F 30% 29.86 in 10.0 mi NNW 8.1 mph - N/A   Clear
8:56 PM 66.9 °F 44.1 °F 44% 29.88 in 10.0 mi Variable 5.8 mph - N/A   Clear
9:56 PM 64.9 °F 44.1 °F 47% 29.91 in 10.0 mi North 10.4 mph 19.6 mph N/A   Clear
10:56 PM 62.1 °F 44.1 °F 52% 29.93 in 10.0 mi Variable 5.8 mph - N/A   Clear
11:56 PM 60.1 °F 44.1 °F 55% 29.93 in 10.0 mi Variable 6.9 mph - N/A   Clear